Weather History for Sedalia, MO

Change the Weather History Date:

Tuesday, June 4, 2013

  Actual Average Record
Temperature  
Mean Temperature 66 °F 72 °F  
Max Temperature 75 °F 82 °F 96 °F (2012)
Min Temperature 57 °F 62 °F 41 °F (1945)
Degree Days  
Heating Degree Days 0 1  
Month to date heating degree days 8 4  
Since 1 June heating degree days 8 4  
Since 1 July heating degree days 4744 4569  
Cooling Degree Days 1 7  
Month to date cooling degree days 3 28  
Year to date cooling degree days 151 167  
Since 1 June cooling degree days 3 28  
Growing Degree Days 16 (Base 50)    
Moisture  
Dew Point 59 °F    
Average Humidity 79    
Maximum Humidity 93    
Minimum Humidity 64    
Precipitation  
Precipitation 0.00 in 0.19 in 1.77 in (1989)
Month to date precipitation T 0.81  
Year to date precipitation 23.00 15.96  
Sea Level Pressure  
Sea Level Pressure 29.99 in    
Wind  
Wind Speed 8 mph (SE)    
Max Wind Speed 17 mph    
Max Gust Speed 22 mph    
Visibility 10 miles    
Events      
T = Trace of Precipitation, MM = Missing Value Source: NWS Daily Summary

Daily Weather History Graph

Daily Weather History Graph

Search for Another Location

Airport:

Trip Planner

Search our weather history database for the weather conditions in past years. The results will help you decide how hot, cold, wet, or windy it might be!

Date:

Astronomy

Jun. 04, 2013 Rise Set
Actual Time 5:48 AM CDT 8:33 PM CDT
Civil Twilight 5:17 AM CDT 9:05 PM CDT
Nautical Twilight 4:37 AM CDT 9:44 PM CDT
Astronomical Twilight 3:53 AM CDT 10:29 PM CDT
Moon 3:16 AM CDT (6/4) 5:05 PM CDT (6/4)
Length of Visible Light 15h 48m
Length of Day
14h 45m
Waning Crescent, 14% of the Moon is Illuminated
Jun 4
Waning Crescent
Jun 8
New
Jun 16
First Quarter
Jun 23
Full
Jun 29
Last Quarter

Hourly Weather History & Observations

Time (CDT) Temp. Dew Point Humidity Pressure Visibility Wind Dir Wind Speed Gust Speed Precip Events Conditions
12:53 AM 60.1 °F 55.0 °F 83% 29.99 in 10.0 mi SE 8.1 mph - N/A   Clear
1:53 AM 60.1 °F 54.0 °F 80% 29.96 in 10.0 mi SE 13.8 mph - N/A   Clear
2:53 AM 59.0 °F 54.0 °F 83% 29.96 in 10.0 mi ESE 6.9 mph - N/A   Clear
3:53 AM 57.9 °F 54.0 °F 87% 29.97 in 10.0 mi ESE 9.2 mph - N/A   Clear
4:53 AM 57.9 °F 54.0 °F 87% 29.97 in 10.0 mi ESE 8.1 mph - N/A   Scattered Clouds
5:53 AM 57.9 °F 54.0 °F 87% 30.00 in 10.0 mi SSE 8.1 mph - N/A   Clear
6:53 AM 57.9 °F 55.0 °F 90% 30.00 in 10.0 mi ESE 9.2 mph - N/A   Clear
7:53 AM 60.1 °F 55.9 °F 86% 29.99 in 10.0 mi SE 12.7 mph - N/A   Partly Cloudy
8:53 AM 63.0 °F 57.0 °F 81% 30.01 in 10.0 mi SSE 11.5 mph - N/A   Mostly Cloudy
9:53 AM 66.0 °F 57.9 °F 75% 30.02 in 10.0 mi SE 10.4 mph - N/A   Overcast
10:53 AM 68.0 °F 59.0 °F 73% 30.01 in 10.0 mi SE 13.8 mph - N/A   Partly Cloudy
11:53 AM 71.1 °F 60.1 °F 68% 30.03 in 10.0 mi SSE 9.2 mph - N/A   Clear
12:53 PM 73.0 °F 62.1 °F 68% 30.05 in 10.0 mi SSW 6.9 mph - N/A   Mostly Cloudy
1:53 PM 73.9 °F 62.1 °F 66% 30.02 in 10.0 mi Variable 3.5 mph - N/A   Overcast
2:53 PM 75.0 °F 63.0 °F 66% 29.99 in 10.0 mi SE 11.5 mph - N/A   Clear
3:53 PM 75.0 °F 63.0 °F 66% 29.96 in 10.0 mi ESE 10.4 mph - N/A   Clear
4:53 PM 73.9 °F 63.0 °F 68% 29.94 in 10.0 mi SE 11.5 mph - N/A   Mostly Cloudy
5:53 PM 73.0 °F 63.0 °F 71% 29.94 in 10.0 mi SE 11.5 mph - N/A   Clear
6:53 PM 71.1 °F 60.1 °F 68% 29.95 in 10.0 mi SE 15.0 mph 21.9 mph N/A   Mostly Cloudy
7:53 PM 69.1 °F 61.0 °F 75% 29.97 in 10.0 mi SE 3.5 mph - N/A   Clear
8:53 PM 68.0 °F 60.1 °F 76% 29.99 in 10.0 mi Calm Calm - N/A   Clear
9:53 PM 64.9 °F 61.0 °F 87% 30.00 in 10.0 mi Calm Calm - N/A   Clear
10:53 PM 63.0 °F 60.1 °F 90% 30.01 in 9.0 mi Calm Calm - N/A   Clear
11:53 PM 63.0 °F 59.0 °F 87% 29.99 in 10.0 mi East 4.6 mph - N/A   Clear